Temperature
30 31 31 31 31 31 31 31 30 30 29 28 28 27 26 26 26 25 24 23 23 23 22 22 22 22 21 21 20 20 19 19 19 19 19 19 19 18 18 18 18 18 18 17
29 30 31 31 30 30 30 31 31 30 28 28 27 27 26 25 25 24 23 23 22 22 21 21 21 21 21 21 20 20 19 19 19 18 18 18 18 18 18 18 18 18 17 17
28 29 30 29 30 29 29 29 30 29 28 28 26 25 25 24 24 23 22 22 21 21 21 21 21 20 20 20 20 19 19 19 18 18 18 18 18 17 17 17 17 17 17 17
27 27 26 28 30 30 29 29 29 28 28 27 25 24 23 23 23 22 22 21 20 20 20 20 20 19 19 19 19 19 19 18 18 17 17 17 17 17 17 17 17 17 17 17
27 26 27 28 28 28 28 28 29 28 27 26 25 24 23 22 21 21 20 20 20 20 20 19 19 18 18 18 18 18 18 17 17 17 17 17 16 16 16 17 17 16 16 16
26 26 25 26 27 28 28 26 27 27 26 25 25 24 22 21 20 20 19 19 19 19 19 18 18 18 18 18 17 17 17 17 17 16 16 16 16 16 16 16 16 16 16 16
25 25 25 26 27 27 26 24 25 25 24 23 23 22 21 20 20 19 19 18 18 18 18 18 17 17 17 17 17 17 16 16 16 16 16 16 16 16 16 16 15 15 15 15
25 24 23 25 26 25 23 24 24 23 23 22 21 20 20 19 19 18 18 18 18 17 17 17 17 17 16 16 16 16 16 16 16 16 16 15 15 15 15 15 15 15 15 15
24 23 22 23 23 23 23 22 22 22 21 21 20 19 19 18 18 18 17 17 17 16 16 16 16 16 16 15 15 15 15 15 15 15 15 15 15 15 15 15 15 15 14 14
22 22 22 22 22 22 22 21 21 21 20 20 19 19 18 18 17 17 16 16 16 16 15 15 15 15 15 15 15 15 15 15 14 14 15 15 14 14 14 14 14 14 14 14
21 21 21 21 21 21 21 20 20 19 19 19 18 18 17 17 16 16 16 15 15 15 15 14 14 14 14 14 14 14 14 14 14 14 14 14 14 14 14 14 14 14 14 14
21 21 20 20 20 20 19 19 19 18 18 18 17 17 16 16 16 15 15 15 15 14 14 14 14 14 14 14 14 14 13 13 13 13 14 14 14 14 14 14 14 14 14 14
20 20 20 19 19 19 18 18 18 18 17 17 16 16 16 15 15 15 14 14 14 14 14 13 13 13 13 13 13 13 13 13 13 13 13 13 13 14 14 14 14 13 13 13
19 19 19 18 18 18 18 17 17 17 16 16 16 15 15 15 14 14 14 14 14 13 13 13 13 13 13 13 13 13 13 13 13 13 13 13 13 13 13 13 13 13 13 13
18 18 18 18 18 17 17 17 17 16 16 15 15 15 14 14 14 14 13 13 13 13 13 13 12 12 12 12 12 12 12 12 12 12 12 13 13 13 13 13 13 13 12 12
18 18 17 17 17 17 17 17 16 16 15 15 15 14 14 14 13 13 13 13 13 13 12 12 12 12 12 12 12 12 12 12 12 12 12 12 12 12 12 12 12 12 12 12
17 17 17 17 17 16 16 16 16 15 15 15 14 14 14 13 13 13 13 12 12 12 12 12 11 12 11 11 12 12 12 12 12 12 12 12 12 12 12 12 12 12 12 12
17 16 16 16 16 15 15 15 15 15 14 14 14 13 13 13 13 12 12 12 12 12 11 11 11 11 11 11 11 12 12 12 12 12 12 12 12 12 12 12 12 12 12 11
16 16 15 15 15 15 15 14 14 14 13 13 13 13 12 12 12 12 12 12 11 11 11 11 11 11 11 11 11 11 12 12 12 12 12 12 12 11 11 11 11 11 11 11
15 15 15 15 15 14 14 14 13 13 13 13 13 12 12 12 12 12 12 12 11 11 11 11 11 11 11 11 11 11 11 12 12 12 12 11 11 11 11 11 11 11 11 11
15 14 14 14 14 14 14 13 13 13 12 12 12 12 12 12 12 11 11 11 11 11 11 11 11 11 11 11 11 11 11 11 11 11 11 11 11 11 11 11 11 11 11 11
14 14 14 13 13 13 13 13 13 12 12 12 12 12 11 11 11 11 11 11 11 11 11 11 11 11 11 11 11 11 11 11 11 11 11 11 11 11 11 11 10 10 10 10
13 13 13 13 13 13 13 12 12 12 12 12 11 11 11 11 11 11 11 11 11 11 11 11 11 11 11 11 11 11 11 11 11 11 11 11 11 11 10 10 10 10 10 10
13 13 13 13 12 12 12 12 12 12 11 11 11 11 11 11 11 11 11 11 11 11 10 10 10 10 10 10 10 11 11 11 11 11 10 10 10 10 10 10 10 10 9 9
13 13 12 12 12 12 12 12 12 11 11 11 11 11 11 11 11 11 11 11 10 10 10 10 10 10 10 10 10 10 10 10 10 10 10 10 10 10 10 9 9 9 9 9
12 12 12 12 12 12 12 12 12 12 11 11 11 11 11 11 11 11 10 10 10 10 10 10 10 10 10 10 10 10 10 10 10 10 10 10 9 9 9 9 9 9 8 8
12 12 12 12 12 12 12 12 12 12 12 11 11 11 11 11 11 10 10 10 10 10 10 10 10 10 10 10 10 10 10 10 10 9 9 9 9 9 9 8 8 8 8 8
Wind_Speed
18 16 14 14 14 14 14 14 13 9 6 3 2 6 5 6 8 8 8 7 6 7 7 6 5 5 6 6 6 6 7 7 7 6 5 5 5 5 5 5 5 4 4 4
17 18 15 14 12 12 14 14 13 10 4 4 4 6 6 5 8 7 6 5 5 6 6 6 5 5 4 4 5 5 6 6 6 5 5 5 5 5 5 5 4 4 4 4
16 16 15 16 11 11 11 8 8 7 3 6 6 7 7 7 8 7 6 5 4 4 4 5 5 5 4 3 3 4 4 4 5 5 5 5 5 5 5 4 4 4 4 4
14 13 17 10 7 8 8 6 2 4 5 6 8 8 7 7 8 6 5 5 4 3 4 4 4 4 3 3 2 3 3 4 4 4 4 4 4 4 4 4 4 4 4 4
12 14 13 8 5 4 5 2 1 4 5 7 8 9 8 8 7 7 6 5 4 3 3 4 4 3 2 2 2 2 3 3 3 4 3 3 3 3 3 3 3 4 4 4
12 13 12 5 3 5 5 3 3 5 6 7 6 4 4 6 6 6 6 5 4 4 4 3 3 2 2 2 1 0 1 1 1 2 3 3 3 2 2 3 3 4 4 4
14 13 5 3 4 5 5 1 4 7 8 7 7 5 5 6 6 6 5 5 4 4 4 3 2 2 2 2 1 0 0 0 1 1 2 2 2 2 2 3 3 4 4 4
11 11 4 5 3 2 4 6 7 8 8 8 8 8 7 7 6 6 5 5 5 4 4 3 3 3 2 2 2 1 1 0 1 1 2 2 1 2 2 3 3 3 4 5
2 1 4 5 6 6 6 7 7 7 7 7 7 7 6 6 5 5 5 4 4 4 4 4 3 2 2 2 2 2 2 2 2 2 2 2 2 3 3 2 3 3 4 4
1 2 4 5 5 6 7 6 6 7 7 6 5 5 5 5 4 4 4 3 3 3 3 3 3 2 1 1 2 2 2 2 2 3 3 2 2 3 2 2 2 2 3 3
2 3 4 4 4 5 6 6 7 7 6 5 4 4 4 3 3 3 3 3 3 3 2 2 2 2 2 2 1 2 3 3 3 3 2 2 3 2 2 1 1 3 3 2
1 2 2 3 3 4 5 5 6 6 6 5 5 4 3 3 3 2 2 2 2 2 2 3 2 2 3 3 1 3 3 3 3 3 2 3 3 2 1 2 2 3 2 2
2 3 2 2 4 4 4 5 5 5 5 5 4 3 3 3 3 2 2 2 2 2 3 2 2 2 2 3 3 3 4 4 4 3 3 4 3 3 2 2 1 1 2 2
3 3 3 2 3 4 5 4 4 5 4 4 3 3 3 3 2 2 2 2 2 2 2 2 3 3 3 3 3 3 4 4 4 3 3 3 4 3 3 2 2 2 2 4
2 2 3 3 3 4 4 3 3 4 4 3 3 3 2 2 2 2 2 2 2 2 2 3 3 3 4 4 4 4 5 4 3 3 3 3 3 3 4 3 2 1 1 1
2 2 3 4 3 3 3 2 2 3 3 2 2 2 1 1 2 2 2 2 2 3 3 3 4 4 4 4 4 4 4 4 3 4 3 3 2 3 3 3 2 1 1 1
4 3 3 3 2 1 1 1 1 2 2 1 1 0 1 2 1 2 2 3 3 2 3 3 4 4 4 3 4 4 4 3 2 3 3 3 3 3 3 2 2 2 1 1
3 3 2 1 1 0 0 0 0 1 1 1 1 0 1 1 1 2 2 2 3 3 3 4 3 4 3 3 3 4 3 3 2 2 2 2 2 2 3 2 2 2 1 2
3 2 2 2 1 1 1 1 1 1 1 1 1 0 0 0 0 1 2 2 2 3 3 4 3 3 3 3 3 3 3 3 2 2 2 1 1 2 2 2 2 2 2 1
3 2 1 1 1 1 1 1 1 1 1 1 1 1 1 1 1 1 1 2 2 2 3 4 4 4 3 3 3 3 3 3 3 2 2 2 2 2 2 2 2 2 2 1
2 1 1 1 1 1 1 1 1 1 1 1 1 2 1 1 1 1 2 2 1 1 3 4 3 3 3 4 4 4 3 3 3 2 3 2 2 3 2 2 2 2 2 2
1 2 2 1 1 1 1 1 1 2 2 1 2 2 2 2 2 1 1 2 1 2 3 4 3 3 4 5 4 4 3 3 3 3 3 3 2 2 2 2 2 2 2 2
1 1 1 1 1 1 1 0 1 1 1 1 1 1 1 1 1 1 1 1 2 2 3 3 3 4 5 5 4 3 3 3 4 4 3 3 3 2 2 2 2 2 2 2
0 1 1 1 1 2 1 1 1 1 1 1 1 1 1 0 1 1 1 1 1 1 2 2 2 3 4 4 4 3 3 3 3 4 4 3 3 3 2 2 2 2 2 2
0 1 2 2 2 2 1 2 3 2 2 1 1 1 1 0 0 1 1 1 1 1 2 1 2 3 3 4 3 3 3 3 4 4 4 4 3 3 2 3 3 2 1 1
1 1 1 1 1 1 2 2 2 2 1 1 1 1 1 1 1 1 0 0 1 1 2 2 2 2 3 3 3 3 3 2 3 3 3 3 3 3 3 2 3 2 2 1
2 2 2 1 1 1 1 2 2 1 1 1 1 1 1 1 1 1 1 1 2 2 3 3 3 3 3 3 3 2 2 2 2 2 2 2 2 2 3 3 3 2 2 3
Wind_Direction
260 261 255 249 246 243 245 250 256 250 224 181 146 112 109 114 110 114 115 124 125 125 128 134 133 142 147 156 161 166 171 177 179 177 177 183 192 198 200 205 213 214 225 236
258 260 261 255 246 248 254 253 252 252 205 154 104 102 113 110 109 112 112 115 120 119 135 140 137 139 139 154 156 160 170 175 172 177 184 192 197 202 205 208 215 218 223 233
256 257 258 251 240 240 243 252 253 257 191 135 116 114 117 114 115 112 110 111 105 116 124 123 126 126 131 122 130 150 162 167 167 179 190 195 204 207 215 219 221 230 231 232
254 256 249 254 248 235 236 244 226 143 143 126 114 108 90 92 99 103 109 103 90 90 102 107 103 113 116 133 138 152 164 168 167 184 198 199 201 214 225 230 231 238 238 235
249 247 248 255 262 271 267 236 126 147 139 125 122 118 98 78 82 90 83 81 82 88 93 108 105 96 115 145 160 176 176 181 180 187 196 200 206 223 236 239 244 245 244 242
247 251 248 234 269 281 257 214 67 101 111 121 126 125 97 77 74 80 78 72 60 59 59 78 96 121 121 120 107 154 218 218 207 198 203 208 204 220 235 242 250 254 246 246
243 251 257 310 288 262 234 163 71 88 97 95 86 79 95 91 78 67 69 66 60 55 52 59 73 102 114 101 92 70 14 311 211 186 213 214 200 221 238 248 254 257 251 248
244 246 243 350 343 32 80 79 82 85 85 89 88 85 89 85 80 75 66 54 55 62 50 45 63 74 74 45 22 21 23 339 327 270 255 241 224 247 247 243 251 261 263 255
258 211 70 41 57 75 84 85 82 88 87 85 94 95 96 92 83 77 74 61 53 57 50 40 51 55 48 21 16 2 351 341 334 295 265 258 243 255 255 249 251 258 259 259
128 110 94 75 66 73 83 89 88 87 87 87 94 97 97 93 83 73 66 55 54 66 51 33 32 23 9 11 15 345 329 320 299 284 268 269 260 261 261 259 264 276 272 269
153 117 94 85 66 68 78 86 85 85 83 80 87 88 92 91 80 75 63 47 34 36 33 14 17 9 0 12 359 306 294 293 292 272 259 266 265 276 276 288 266 260 277 279
220 142 145 136 101 86 81 87 89 83 76 75 80 79 90 94 82 72 57 42 36 9 353 352 355 7 358 345 317 286 281 278 274 279 278 262 247 270 334 250 220 210 226 255
102 111 111 106 110 103 100 96 98 92 84 75 73 76 78 78 72 54 42 25 18 2 348 348 345 346 336 322 312 285 282 286 288 288 287 281 264 253 262 263 254 239 249 239
91 119 124 116 123 109 105 97 100 98 90 83 76 79 73 62 48 26 10 1 359 350 340 341 349 348 343 327 318 301 291 285 283 282 284 277 277 274 263 251 241 255 247 221
79 114 139 129 114 117 121 119 120 112 98 90 82 78 72 55 33 19 12 4 0 339 342 344 345 344 332 321 316 306 297 293 294 292 285 284 282 280 277 266 259 241 190 163
128 143 148 146 150 153 160 155 146 133 116 95 76 60 46 34 21 19 13 5 353 340 342 343 337 332 324 319 315 305 294 283 280 289 291 293 287 288 291 290 287 282 235 226
166 183 178 167 163 158 161 157 165 159 147 153 131 23 4 4 13 19 358 355 356 346 338 328 327 332 321 307 306 306 308 305 262 284 301 308 315 311 303 302 301 288 271 228
167 167 168 160 118 280 304 343 267 166 142 148 160 136 328 330 349 7 355 356 351 343 342 335 334 322 311 317 317 307 310 314 312 306 304 311 315 309 310 316 305 300 274 206
149 141 136 124 158 190 201 196 171 130 129 147 158 204 214 301 13 345 343 334 332 339 348 357 359 316 321 332 318 295 290 298 311 306 299 284 292 309 307 301 297 287 277 250
119 128 132 139 158 155 153 149 141 165 213 217 208 208 235 266 290 320 325 314 325 345 341 341 326 322 315 319 310 298 297 300 298 300 304 302 300 298 299 299 308 331 338 334
113 106 107 106 136 139 149 167 177 203 204 200 213 229 245 256 272 288 295 305 354 4 321 308 297 305 315 325 303 300 300 301 294 294 297 304 306 302 310 320 330 339 336 334
111 119 117 101 114 121 112 177 192 191 179 185 202 216 230 238 249 263 286 302 333 8 319 313 324 351 334 315 299 299 310 318 314 306 301 301 309 315 321 323 316 307 315 321
128 131 140 152 139 123 122 151 156 143 156 178 191 212 249 277 287 285 310 337 348 339 311 334 359 352 326 303 299 305 317 323 322 316 317 321 321 321 317 312 307 308 310 321
106 133 161 165 132 134 141 116 98 112 149 198 206 190 207 277 303 303 313 349 22 5 339 15 357 325 311 308 309 313 320 324 327 327 325 327 327 330 329 317 316 332 343 337
176 170 156 151 150 146 140 136 140 144 148 139 122 132 190 237 257 10 35 24 52 349 319 305 273 283 297 311 321 330 337 343 344 338 332 329 328 333 343 351 354 346 348 359
163 155 133 147 138 176 180 162 141 125 115 97 81 80 81 88 82 94 108 313 353 347 316 319 312 283 296 306 311 319 328 332 330 320 324 330 334 342 348 345 345 342 340 350
138 128 126 129 109 103 104 109 108 114 139 125 97 85 82 78 73 43 15 11 1 343 332 328 323 319 318 316 314 319 331 341 349 351 355 1 1 354 352 358 7 6 348 341
Height
1432 1426 1425 1430 1431 1432 1436 1438 1445 1446 1448 1449 1448 1451 1456 1457 1459 1463 1465 1468 1470 1472 1475 1479 1482 1485 1488 1490 1492 1494 1496 1497 1499 1501 1503 1505 1506 1507 1508 1509 1510 1511 1511 1511
1436 1427 1425 1429 1429 1432 1435 1434 1436 1440 1447 1446 1448 1452 1456 1458 1460 1463 1467 1469 1471 1473 1476 1478 1481 1484 1486 1488 1490 1492 1493 1495 1497 1498 1500 1502 1503 1504 1505 1505 1506 1507 1507 1508
1442 1432 1431 1438 1430 1432 1434 1434 1435 1443 1446 1446 1450 1455 1458 1460 1462 1465 1468 1471 1472 1474 1475 1478 1480 1482 1484 1486 1488 1490 1491 1493 1494 1495 1497 1498 1500 1501 1501 1502 1503 1503 1504 1504
1441 1442 1454 1435 1423 1425 1430 1432 1432 1438 1443 1447 1451 1458 1461 1462 1464 1466 1469 1471 1472 1475 1476 1478 1480 1481 1483 1485 1486 1487 1489 1491 1491 1492 1494 1495 1495 1497 1498 1498 1499 1499 1500 1500
1442 1446 1443 1433 1428 1430 1435 1437 1434 1438 1443 1448 1452 1457 1463 1465 1467 1469 1471 1473 1474 1475 1476 1478 1479 1480 1482 1484 1484 1486 1487 1488 1489 1490 1491 1492 1492 1493 1494 1494 1495 1495 1496 1496
1441 1448 1452 1441 1431 1431 1434 1443 1439 1441 1446 1449 1452 1458 1465 1467 1469 1470 1471 1473 1475 1476 1477 1478 1479 1480 1481 1482 1483 1484 1484 1485 1487 1487 1487 1488 1489 1489 1490 1490 1491 1492 1492 1492
1440 1444 1442 1435 1432 1433 1448 1451 1444 1446 1450 1453 1457 1461 1467 1468 1470 1472 1472 1474 1475 1477 1478 1479 1479 1480 1481 1481 1482 1483 1483 1483 1484 1483 1484 1485 1486 1486 1486 1486 1486 1487 1488 1488
1439 1446 1452 1439 1436 1442 1448 1446 1447 1450 1454 1457 1460 1464 1466 1468 1470 1472 1473 1475 1476 1477 1478 1479 1479 1479 1479 1480 1481 1481 1481 1481 1480 1481 1481 1482 1483 1483 1483 1483 1482 1483 1483 1484
1441 1448 1446 1444 1444 1446 1448 1449 1452 1454 1458 1460 1463 1466 1468 1470 1472 1473 1475 1475 1476 1477 1478 1478 1478 1478 1478 1479 1479 1479 1478 1478 1478 1479 1479 1480 1480 1480 1480 1479 1479 1480 1480 1481
1441 1444 1445 1447 1449 1450 1452 1454 1455 1458 1460 1463 1465 1467 1469 1471 1472 1474 1475 1476 1477 1477 1477 1477 1477 1477 1477 1477 1476 1476 1476 1476 1476 1476 1476 1477 1477 1477 1477 1477 1477 1477 1477 1477
1443 1446 1448 1451 1452 1453 1455 1456 1458 1460 1462 1464 1466 1467 1469 1470 1472 1473 1475 1476 1476 1476 1476 1476 1476 1476 1475 1475 1474 1474 1474 1474 1474 1474 1474 1474 1474 1474 1474 1474 1474 1474 1474 1474
1445 1447 1449 1453 1454 1455 1457 1458 1460 1462 1463 1465 1466 1467 1469 1470 1472 1473 1474 1474 1474 1475 1475 1475 1474 1473 1472 1472 1472 1472 1472 1472 1472 1472 1471 1471 1472 1471 1471 1472 1472 1472 1471 1471
1445 1448 1450 1452 1454 1456 1458 1460 1461 1463 1464 1466 1467 1468 1469 1470 1471 1472 1473 1473 1473 1474 1474 1473 1472 1471 1471 1470 1470 1470 1470 1470 1469 1469 1469 1469 1469 1468 1468 1468 1468 1467 1467 1467
1447 1449 1451 1454 1456 1457 1459 1461 1462 1463 1465 1466 1467 1469 1470 1470 1471 1471 1472 1472 1472 1473 1473 1472 1471 1470 1470 1469 1468 1468 1468 1467 1467 1466 1466 1465 1465 1465 1465 1465 1464 1463 1463 1463
1449 1451 1453 1455 1457 1458 1460 1462 1462 1464 1465 1467 1468 1469 1469 1470 1470 1470 1470 1471 1471 1471 1471 1471 1470 1469 1468 1467 1466 1465 1465 1465 1464 1464 1463 1463 1462 1462 1462 1461 1461 1461 1460 1459
1451 1453 1454 1456 1458 1459 1461 1462 1462 1464 1465 1467 1468 1469 1469 1470 1470 1470 1470 1470 1470 1470 1469 1469 1468 1467 1466 1465 1464 1463 1463 1463 1462 1462 1461 1460 1460 1460 1459 1459 1458 1458 1457 1457
1452 1453 1455 1456 1458 1459 1460 1461 1462 1463 1465 1466 1467 1468 1469 1469 1469 1469 1469 1469 1468 1468 1467 1466 1465 1465 1464 1463 1462 1462 1461 1461 1460 1460 1459 1458 1458 1458 1457 1456 1455 1455 1455 1454
1452 1453 1455 1456 1457 1458 1460 1461 1462 1463 1464 1465 1466 1467 1467 1468 1468 1468 1468 1467 1467 1466 1465 1463 1462 1461 1461 1461 1461 1460 1460 1460 1459 1459 1458 1457 1456 1456 1455 1455 1454 1453 1453 1453
1451 1453 1454 1455 1456 1457 1459 1460 1461 1462 1463 1464 1465 1465 1466 1466 1467 1467 1466 1466 1465 1464 1463 1461 1460 1460 1460 1460 1459 1459 1458 1458 1457 1457 1457 1456 1455 1455 1454 1453 1453 1452 1452 1451
1451 1452 1453 1455 1456 1457 1458 1458 1459 1460 1462 1462 1463 1463 1464 1465 1465 1465 1465 1465 1464 1463 1462 1461 1460 1460 1459 1459 1458 1457 1457 1456 1456 1455 1455 1454 1453 1453 1453 1452 1451 1451 1450 1450
1451 1452 1453 1454 1454 1456 1456 1457 1458 1459 1460 1460 1461 1461 1462 1463 1463 1463 1463 1463 1462 1462 1461 1460 1459 1459 1458 1457 1456 1456 1456 1455 1454 1453 1453 1452 1452 1451 1451 1450 1450 1449 1448 1448
1451 1451 1452 1453 1453 1454 1455 1456 1456 1457 1458 1458 1459 1460 1460 1461 1461 1461 1461 1461 1461 1460 1459 1459 1458 1457 1456 1455 1455 1455 1454 1453 1452 1452 1451 1450 1450 1449 1449 1448 1448 1447 1447 1446
1451 1451 1452 1452 1453 1453 1454 1454 1455 1455 1456 1457 1457 1458 1458 1459 1459 1459 1459 1459 1459 1458 1457 1457 1456 1455 1454 1454 1453 1453 1452 1451 1451 1450 1449 1448 1448 1447 1447 1446 1446 1445 1445 1444
1450 1450 1451 1452 1452 1452 1453 1453 1454 1454 1455 1456 1456 1456 1457 1457 1457 1457 1457 1457 1457 1457 1456 1456 1454 1453 1453 1452 1452 1451 1450 1450 1449 1448 1448 1447 1446 1445 1445 1444 1444 1443 1442 1441
1450 1450 1451 1451 1452 1452 1453 1453 1453 1454 1454 1454 1455 1456 1456 1456 1456 1456 1456 1456 1456 1455 1455 1454 1453 1452 1451 1451 1450 1449 1449 1448 1448 1447 1446 1445 1445 1444 1443 1442 1441 1441 1440 1439
1449 1450 1451 1451 1452 1452 1453 1453 1453 1453 1454 1454 1455 1455 1455 1455 1455 1455 1455 1455 1455 1454 1454 1453 1452 1451 1450 1450 1449 1448 1447 1447 1446 1445 1445 1444 1443 1442 1441 1440 1439 1438 1437 1436
1450 1450 1451 1452 1452 1452 1453 1453 1453 1453 1454 1454 1455 1455 1455 1455 1455 1455 1455 1455 1454 1454 1453 1452 1451 1450 1449 1449 1448 1447 1446 1446 1445 1444 1443 1442 1441 1440 1439 1438 1437 1436 1435 1434